Simultaneous Nadir Overpasses (SNOs) Predictions

Prediction of SNOs between NOAA-20 and PACE Satellite Orbit:

Table of predicted SNOs for the next 14.0 days since TLE Epoch: 10/26/2024
Index Date (NOAA-20) Time (NOAA-20) Lat,Lon (NOAA-20) SZA (NOAA-20 ) Date (PACE) Time (PACE) Lat,Lon (PACE) SZA (PACE ) Distance(km) Time Diff (sec)
1 10/27/2024 06:28:25 -79.87,-134.79 85.57 10/27/2024 06:28:57 -79.87,-134.83 85.58 0.83 32
2 10/27/2024 07:19:04 79.66, 34.45 94.09 10/27/2024 07:18:00 79.66, 34.48 94.11 0.68 64
3 10/29/2024 10:04:08 79.90, -9.02 95.20 10/29/2024 10:04:49 79.89, -8.93 95.17 1.87 41
4 10/29/2024 10:54:46 -79.71, 160.07 85.12 10/29/2024 10:53:52 -79.70, 160.20 85.12 2.61 54
5 10/31/2024 13:39:47 -79.86, 117.43 84.18 10/31/2024 13:40:38 -79.86, 117.32 84.19 2.01 51
6 10/31/2024 14:30:27 79.69, -73.64 95.53 10/31/2024 14:29:42 79.69, -73.67 95.56 0.81 45
7 11/02/2024 17:15:31 79.94,-117.23 96.63 11/02/2024 17:16:29 79.93,-117.15 96.60 1.78 58
8 11/02/2024 18:06:09 -79.75, 51.89 83.69 11/02/2024 18:05:32 -79.74, 52.00 83.69 2.28 37
9 11/04/2024 20:51:10 -79.91, 9.12 82.76 11/04/2024 20:52:16 -79.91, 9.07 82.78 1.04 66
10 11/04/2024 21:41:49 79.71, 178.32 96.91 11/04/2024 21:41:19 79.70, 178.32 96.92 0.29 30
11 11/07/2024 00:26:51 79.91, 135.18 97.89 11/07/2024 00:28:03 79.92, 135.07 97.88 2.42 72



Historial Predications of SNOs between NOAA-20 and PACE
